Year,Month,Day,Hour,Minute,Value (Times are PST for temperature in C)
2019,07,20,00,00,9.40
2019,07,20,00,01,9.40
2019,07,20,00,02,9.40
2019,07,20,00,03,9.40
2019,07,20,00,04,9.40
2019,07,20,00,05,9.40
2019,07,20,00,06,9.40
2019,07,20,00,07,9.40
2019,07,20,00,08,9.30
2019,07,20,00,09,9.30
2019,07,20,00,10,9.30
2019,07,20,00,11,9.30
2019,07,20,00,12,9.30
2019,07,20,00,13,9.30
2019,07,20,00,14,9.30
2019,07,20,00,15,9.30
2019,07,20,00,16,9.30
2019,07,20,00,17,9.30
2019,07,20,00,18,9.30
2019,07,20,00,19,9.30
2019,07,20,00,20,9.20
2019,07,20,00,21,9.20
2019,07,20,00,22,9.20
2019,07,20,00,23,9.20
2019,07,20,00,24,9.20
2019,07,20,00,25,9.20
2019,07,20,00,26,9.20
2019,07,20,00,27,9.20
2019,07,20,00,28,9.20
2019,07,20,00,29,9.20
2019,07,20,00,30,9.20
2019,07,20,00,31,9.20
2019,07,20,00,32,9.20
2019,07,20,00,33,9.20
2019,07,20,00,34,9.20
2019,07,20,00,35,9.10
2019,07,20,00,36,9.10
2019,07,20,00,37,9.10
2019,07,20,00,38,9.10
2019,07,20,00,39,9.10
2019,07,20,00,40,9.10
2019,07,20,00,41,9.10
2019,07,20,00,42,9.10
2019,07,20,00,43,9.10
2019,07,20,00,44,9.10
2019,07,20,00,45,9.10
2019,07,20,00,46,9.10
2019,07,20,00,47,9.10
2019,07,20,00,48,9.10
2019,07,20,00,49,9.10
2019,07,20,00,50,9.10
2019,07,20,00,51,9.10
2019,07,20,00,52,9.10
2019,07,20,00,53,9.00
2019,07,20,00,54,9.00
2019,07,20,00,55,9.00
2019,07,20,00,56,9.00
2019,07,20,00,57,9.00
2019,07,20,00,58,9.00
2019,07,20,00,59,9.00
2019,07,20,01,00,9.00
2019,07,20,01,01,9.00
2019,07,20,01,02,9.00
2019,07,20,01,03,9.00
2019,07,20,01,04,8.90
2019,07,20,01,05,9.00
2019,07,20,01,06,9.00
2019,07,20,01,07,9.00
2019,07,20,01,08,9.00
2019,07,20,01,09,9.00
2019,07,20,01,10,9.00
2019,07,20,01,11,9.00
2019,07,20,01,12,9.00
2019,07,20,01,13,9.00
2019,07,20,01,14,8.90
2019,07,20,01,15,8.90
2019,07,20,01,16,8.90
2019,07,20,01,17,8.90
2019,07,20,01,18,8.90
2019,07,20,01,19,8.90
2019,07,20,01,20,8.90
2019,07,20,01,21,8.90
2019,07,20,01,22,8.90
2019,07,20,01,23,8.90
2019,07,20,01,24,8.90
2019,07,20,01,25,8.80
2019,07,20,01,26,8.80
2019,07,20,01,27,8.80
2019,07,20,01,28,8.80
2019,07,20,01,29,8.80
2019,07,20,01,30,8.80
2019,07,20,01,31,8.80
2019,07,20,01,32,8.80
2019,07,20,01,33,8.80
2019,07,20,01,34,8.80
2019,07,20,01,35,8.70
2019,07,20,01,36,8.70
2019,07,20,01,37,8.70
2019,07,20,01,38,8.70
2019,07,20,01,39,8.70
2019,07,20,01,40,8.70
2019,07,20,01,41,8.70
2019,07,20,01,42,8.70
2019,07,20,01,43,8.70
2019,07,20,01,44,8.70
2019,07,20,01,45,8.70
2019,07,20,01,46,8.70
2019,07,20,01,47,8.70
2019,07,20,01,48,8.70
2019,07,20,01,49,8.70
2019,07,20,01,50,8.60
2019,07,20,01,51,8.60
2019,07,20,01,52,8.60
2019,07,20,01,53,8.60
2019,07,20,01,54,8.60
2019,07,20,01,55,8.60
2019,07,20,01,56,8.60
2019,07,20,01,57,8.60
2019,07,20,01,58,8.60
2019,07,20,01,59,8.60
2019,07,20,02,00,8.60
2019,07,20,02,01,8.60
2019,07,20,02,02,8.60
2019,07,20,02,03,8.60
2019,07,20,02,04,8.60
2019,07,20,02,05,8.60
2019,07,20,02,06,8.60
2019,07,20,02,07,8.60
2019,07,20,02,08,8.60
2019,07,20,02,09,8.60
2019,07,20,02,10,8.60
2019,07,20,02,11,8.60
2019,07,20,02,12,8.60
2019,07,20,02,13,8.60
2019,07,20,02,14,8.60
2019,07,20,02,15,8.60
2019,07,20,02,16,8.60
2019,07,20,02,17,8.60
2019,07,20,02,18,8.60
2019,07,20,02,19,8.70
2019,07,20,02,20,8.70
2019,07,20,02,21,8.60
2019,07,20,02,22,8.60
2019,07,20,02,23,8.60
2019,07,20,02,24,8.60
2019,07,20,02,25,8.60
2019,07,20,02,26,8.60
2019,07,20,02,27,8.60
2019,07,20,02,28,8.60
2019,07,20,02,29,8.60
2019,07,20,02,30,8.60
2019,07,20,02,31,8.60
2019,07,20,02,32,8.60
2019,07,20,02,33,8.60
2019,07,20,02,34,8.60
2019,07,20,02,35,8.60
2019,07,20,02,36,8.60
2019,07,20,02,37,8.60
2019,07,20,02,38,8.60
2019,07,20,02,39,8.60
2019,07,20,02,40,8.60
2019,07,20,02,41,8.60
2019,07,20,02,42,8.60
2019,07,20,02,43,8.60
2019,07,20,02,44,8.60
2019,07,20,02,45,8.60
2019,07,20,02,46,8.70
2019,07,20,02,47,8.70
2019,07,20,02,48,8.70
2019,07,20,02,49,8.70
2019,07,20,02,50,8.70
2019,07,20,02,51,8.70
2019,07,20,02,52,8.70
2019,07,20,02,53,8.70
2019,07,20,02,54,8.70
2019,07,20,02,55,8.70
2019,07,20,02,56,8.70
2019,07,20,02,57,8.70
2019,07,20,02,58,8.60
2019,07,20,02,59,8.60
2019,07,20,03,00,8.60
2019,07,20,03,01,8.60
2019,07,20,03,02,8.60
2019,07,20,03,03,8.60
2019,07,20,03,04,8.60
2019,07,20,03,05,8.60
2019,07,20,03,06,8.60
2019,07,20,03,07,8.60
2019,07,20,03,08,8.60
2019,07,20,03,09,8.60
2019,07,20,03,10,8.60
2019,07,20,03,11,8.60
2019,07,20,03,12,8.60
2019,07,20,03,13,8.60
2019,07,20,03,14,8.60
2019,07,20,03,15,8.60
2019,07,20,03,16,8.60
2019,07,20,03,17,8.60
2019,07,20,03,18,8.60
2019,07,20,03,19,8.60
2019,07,20,03,20,8.50
2019,07,20,03,21,8.50
2019,07,20,03,22,8.50
2019,07,20,03,23,8.50
2019,07,20,03,24,8.50
2019,07,20,03,25,8.50
2019,07,20,03,26,8.50
2019,07,20,03,27,8.50
2019,07,20,03,28,8.50
2019,07,20,03,29,8.50
2019,07,20,03,30,8.50
2019,07,20,03,31,8.40
2019,07,20,03,32,8.40
2019,07,20,03,33,8.40
2019,07,20,03,34,8.40
2019,07,20,03,35,8.40
2019,07,20,03,36,8.40
2019,07,20,03,37,8.40
2019,07,20,03,38,8.40
2019,07,20,03,39,8.40
2019,07,20,03,40,8.40
2019,07,20,03,41,8.40
2019,07,20,03,42,8.40
2019,07,20,03,43,8.40
2019,07,20,03,44,8.40
2019,07,20,03,45,8.40
2019,07,20,03,46,8.40
2019,07,20,03,47,8.40
2019,07,20,03,48,8.40
2019,07,20,03,49,8.40
2019,07,20,03,50,8.30
2019,07,20,03,51,8.30
2019,07,20,03,52,8.30
2019,07,20,03,53,8.30
2019,07,20,03,54,8.30
2019,07,20,03,55,8.30
2019,07,20,03,56,8.30
2019,07,20,03,57,8.30
2019,07,20,03,58,8.30
2019,07,20,03,59,8.30
2019,07,20,04,00,8.30
2019,07,20,04,01,8.30
2019,07,20,04,02,8.30
2019,07,20,04,03,8.30
2019,07,20,04,04,8.30
2019,07,20,04,05,8.30
2019,07,20,04,06,8.30
2019,07,20,04,07,8.30
2019,07,20,04,08,8.30
2019,07,20,04,09,8.30
2019,07,20,04,10,8.30
2019,07,20,04,11,8.30
2019,07,20,04,12,8.30
2019,07,20,04,13,8.30
2019,07,20,04,14,8.30
2019,07,20,04,15,8.30
2019,07,20,04,16,8.30
2019,07,20,04,17,8.30
2019,07,20,04,18,8.30
2019,07,20,04,19,8.30
2019,07,20,04,20,8.30
2019,07,20,04,21,8.30
2019,07,20,04,22,8.30
2019,07,20,04,23,8.30
2019,07,20,04,24,8.20
2019,07,20,04,25,8.20
2019,07,20,04,26,8.20
2019,07,20,04,27,8.20
2019,07,20,04,28,8.20
2019,07,20,04,29,8.20
2019,07,20,04,30,8.20
2019,07,20,04,31,8.20
2019,07,20,04,32,8.20
2019,07,20,04,33,8.20
2019,07,20,04,34,8.20
2019,07,20,04,35,8.20
2019,07,20,04,36,8.20
2019,07,20,04,37,8.10
2019,07,20,04,38,8.10
2019,07,20,04,39,8.10
2019,07,20,04,40,8.10
2019,07,20,04,41,8.10
2019,07,20,04,42,8.10
2019,07,20,04,43,8.10
2019,07,20,04,44,8.10
2019,07,20,04,45,8.10
2019,07,20,04,46,8.10
2019,07,20,04,47,8.10
2019,07,20,04,48,8.10
2019,07,20,04,49,8.00
2019,07,20,04,50,8.00
2019,07,20,04,51,8.00
2019,07,20,04,52,8.00
2019,07,20,04,53,8.00
2019,07,20,04,54,8.00
2019,07,20,04,55,8.00
2019,07,20,04,56,8.00
2019,07,20,04,57,7.90
2019,07,20,04,58,7.90
2019,07,20,04,59,7.90
2019,07,20,05,00,7.90
2019,07,20,05,01,7.90
2019,07,20,05,02,7.90
2019,07,20,05,03,7.90
2019,07,20,05,04,7.90
2019,07,20,05,05,7.90
2019,07,20,05,06,7.90
2019,07,20,05,07,7.90
2019,07,20,05,08,7.90
2019,07,20,05,09,7.90
2019,07,20,05,10,7.90
2019,07,20,05,11,7.90
2019,07,20,05,12,7.90
2019,07,20,05,13,7.90
2019,07,20,05,14,7.90
2019,07,20,05,15,7.90
2019,07,20,05,16,7.90
2019,07,20,05,17,7.80
2019,07,20,05,18,7.80
2019,07,20,05,19,7.80
2019,07,20,05,20,7.80
2019,07,20,05,21,7.80
2019,07,20,05,22,7.80
2019,07,20,05,23,7.80
2019,07,20,05,24,7.80
2019,07,20,05,25,7.80
2019,07,20,05,26,7.80
2019,07,20,05,27,7.80
2019,07,20,05,28,7.80
2019,07,20,05,29,7.80
2019,07,20,05,30,7.80
2019,07,20,05,31,7.80
2019,07,20,05,32,7.80
2019,07,20,05,33,7.80
2019,07,20,05,34,7.80
2019,07,20,05,35,7.80
2019,07,20,05,36,7.80
2019,07,20,05,37,7.80
2019,07,20,05,38,7.80
2019,07,20,05,39,7.80
2019,07,20,05,40,7.80
2019,07,20,05,41,7.80
2019,07,20,05,42,7.80
2019,07,20,05,43,7.80
2019,07,20,05,44,7.80
2019,07,20,05,45,7.80
2019,07,20,05,46,7.70
2019,07,20,05,47,7.70
2019,07,20,05,48,7.70
2019,07,20,05,49,7.70
2019,07,20,05,50,7.70
2019,07,20,05,51,7.70
2019,07,20,05,52,7.70
2019,07,20,05,53,7.70
2019,07,20,05,54,7.70
2019,07,20,05,55,7.70
2019,07,20,05,56,7.70
2019,07,20,05,57,7.70
2019,07,20,05,58,7.70
2019,07,20,05,59,7.70
2019,07,20,06,00,7.70
2019,07,20,06,01,7.70
2019,07,20,06,02,7.70
2019,07,20,06,03,7.70
2019,07,20,06,04,7.70
2019,07,20,06,05,7.80
2019,07,20,06,06,7.80
2019,07,20,06,07,7.80
2019,07,20,06,08,7.80
2019,07,20,06,09,7.80
2019,07,20,06,10,7.80
2019,07,20,06,11,7.80
2019,07,20,06,12,7.80
2019,07,20,06,13,7.80
2019,07,20,06,14,7.80
2019,07,20,06,15,7.80
2019,07,20,06,16,7.80
2019,07,20,06,17,7.80
2019,07,20,06,18,7.80
2019,07,20,06,19,7.80
2019,07,20,06,20,7.80
2019,07,20,06,21,7.80
2019,07,20,06,22,7.90
2019,07,20,06,23,7.90
2019,07,20,06,24,7.90
2019,07,20,06,25,7.90
2019,07,20,06,26,7.90
2019,07,20,06,27,7.90
2019,07,20,06,28,7.90
2019,07,20,06,29,7.90
2019,07,20,06,30,7.90
2019,07,20,06,31,7.90
2019,07,20,06,32,7.90
2019,07,20,06,33,7.90
2019,07,20,06,34,8.00
2019,07,20,06,35,8.00
2019,07,20,06,36,8.00
2019,07,20,06,37,8.00
2019,07,20,06,38,8.10
2019,07,20,06,39,8.10
2019,07,20,06,40,8.10
2019,07,20,06,41,8.10
2019,07,20,06,42,8.10
2019,07,20,06,43,8.10
2019,07,20,06,44,8.10
2019,07,20,06,45,8.20
2019,07,20,06,46,8.20
2019,07,20,06,47,8.20
2019,07,20,06,48,8.20
2019,07,20,06,49,8.30
2019,07,20,06,50,8.30
2019,07,20,06,51,8.40
2019,07,20,06,52,8.40
2019,07,20,06,53,8.50
2019,07,20,06,54,8.50
2019,07,20,06,55,8.50
2019,07,20,06,56,8.60
2019,07,20,06,57,8.60
2019,07,20,06,58,8.60
2019,07,20,06,59,8.70
2019,07,20,07,00,8.70
2019,07,20,07,01,8.70
2019,07,20,07,02,8.80
2019,07,20,07,03,8.80
2019,07,20,07,04,8.90
2019,07,20,07,05,9.00
2019,07,20,07,06,9.10
2019,07,20,07,07,9.30
2019,07,20,07,08,9.50
2019,07,20,07,09,9.60
2019,07,20,07,10,9.70
2019,07,20,07,11,9.80
2019,07,20,07,12,9.80
2019,07,20,07,13,9.90
2019,07,20,07,14,10.00
2019,07,20,07,15,10.00
2019,07,20,07,16,10.20
2019,07,20,07,17,10.40
2019,07,20,07,18,10.60
2019,07,20,07,19,10.70
2019,07,20,07,20,10.80
2019,07,20,07,21,10.90
2019,07,20,07,22,11.00
2019,07,20,07,23,11.10
2019,07,20,07,24,11.10
2019,07,20,07,25,11.20
2019,07,20,07,26,11.30
2019,07,20,07,27,11.30
2019,07,20,07,28,11.50
2019,07,20,07,29,11.60
2019,07,20,07,30,11.80
2019,07,20,07,31,11.90
2019,07,20,07,32,12.10
2019,07,20,07,33,12.20
2019,07,20,07,34,12.40
2019,07,20,07,35,12.60
2019,07,20,07,36,12.70
2019,07,20,07,37,12.90
2019,07,20,07,38,13.00
2019,07,20,07,39,13.20
2019,07,20,07,40,13.40
2019,07,20,07,41,13.50
2019,07,20,07,42,13.70
2019,07,20,07,43,13.80
2019,07,20,07,44,14.10
2019,07,20,07,45,14.20
2019,07,20,07,46,14.40
2019,07,20,07,47,14.50
2019,07,20,07,48,14.60
2019,07,20,07,49,14.70
2019,07,20,07,50,14.90
2019,07,20,07,51,15.00
2019,07,20,07,52,15.00
2019,07,20,07,53,15.00
2019,07,20,07,54,15.20
2019,07,20,07,55,15.20
2019,07,20,07,56,15.30
2019,07,20,07,57,15.40
2019,07,20,07,58,15.50
2019,07,20,07,59,15.60
2019,07,20,08,00,15.60
2019,07,20,08,01,15.70
2019,07,20,08,02,15.80
2019,07,20,08,03,15.80
2019,07,20,08,04,15.80
2019,07,20,08,05,15.80
2019,07,20,08,06,15.90
2019,07,20,08,07,15.90
2019,07,20,08,08,15.90
2019,07,20,08,09,15.90
2019,07,20,08,10,15.90
2019,07,20,08,11,15.90
2019,07,20,08,12,15.90
2019,07,20,08,13,15.90
2019,07,20,08,14,15.90
2019,07,20,08,15,16.00
2019,07,20,08,16,16.00
2019,07,20,08,17,16.00
2019,07,20,08,18,16.00
2019,07,20,08,19,16.00
2019,07,20,08,20,16.00
2019,07,20,08,21,16.00
2019,07,20,08,22,16.00
2019,07,20,08,23,16.00
2019,07,20,08,24,16.10
2019,07,20,08,25,16.10
2019,07,20,08,26,16.10
2019,07,20,08,27,16.20
2019,07,20,08,28,16.20
2019,07,20,08,29,16.30
2019,07,20,08,30,16.40
2019,07,20,08,31,16.40
2019,07,20,08,32,16.50
2019,07,20,08,33,16.50
2019,07,20,08,34,16.60
2019,07,20,08,35,16.60
2019,07,20,08,36,16.60
2019,07,20,08,37,16.60
2019,07,20,08,38,16.60
2019,07,20,08,39,16.60
2019,07,20,08,40,16.60
2019,07,20,08,41,16.60
2019,07,20,08,42,16.70
2019,07,20,08,43,16.70
2019,07,20,08,44,16.70
2019,07,20,08,45,16.70
2019,07,20,08,46,16.70
2019,07,20,08,47,16.80
2019,07,20,08,48,16.80
2019,07,20,08,49,16.80
2019,07,20,08,50,16.80
2019,07,20,08,51,16.90
2019,07,20,08,52,16.90
2019,07,20,08,53,16.90
2019,07,20,08,54,16.90
2019,07,20,08,55,16.90
2019,07,20,08,56,16.90
2019,07,20,08,57,17.00
2019,07,20,08,58,17.10
2019,07,20,08,59,17.00
2019,07,20,09,00,17.10
2019,07,20,09,01,17.10
2019,07,20,09,02,17.10
2019,07,20,09,03,17.20
2019,07,20,09,04,17.20
2019,07,20,09,05,17.20
2019,07,20,09,06,17.30
2019,07,20,09,07,17.30
2019,07,20,09,08,17.30
2019,07,20,09,09,17.30
2019,07,20,09,10,17.40
2019,07,20,09,11,17.40
2019,07,20,09,12,17.50
2019,07,20,09,13,17.50
2019,07,20,09,14,17.50
2019,07,20,09,15,17.40
2019,07,20,09,16,17.40
2019,07,20,09,17,17.50
2019,07,20,09,18,17.50
2019,07,20,09,19,17.50
2019,07,20,09,20,17.60
2019,07,20,09,21,17.60
2019,07,20,09,22,17.60
2019,07,20,09,23,17.50
2019,07,20,09,24,17.50
2019,07,20,09,25,17.40
2019,07,20,09,26,17.40
2019,07,20,09,27,17.40
2019,07,20,09,28,17.40
2019,07,20,09,29,17.50
2019,07,20,09,30,17.50
2019,07,20,09,31,17.60
2019,07,20,09,32,17.60
2019,07,20,09,33,17.70
2019,07,20,09,34,17.70
2019,07,20,09,35,17.70
2019,07,20,09,36,17.70
2019,07,20,09,37,17.70
2019,07,20,09,38,17.60
2019,07,20,09,39,17.60
2019,07,20,09,40,17.60
2019,07,20,09,41,17.60
2019,07,20,09,42,17.50
2019,07,20,09,43,17.60
2019,07,20,09,44,17.60
2019,07,20,09,45,17.60
2019,07,20,09,46,17.60
2019,07,20,09,47,17.60
2019,07,20,09,48,17.60
2019,07,20,09,49,17.60
2019,07,20,09,50,17.60
2019,07,20,09,51,17.50
2019,07,20,09,52,17.50
2019,07,20,09,53,17.60
2019,07,20,09,54,17.60
2019,07,20,09,55,17.60
2019,07,20,09,56,17.50
2019,07,20,09,57,17.60
2019,07,20,09,58,17.60
2019,07,20,09,59,17.60
2019,07,20,10,00,17.60
2019,07,20,10,01,17.60
2019,07,20,10,02,17.70
2019,07,20,10,03,17.70
2019,07,20,10,04,17.80
2019,07,20,10,05,17.80
2019,07,20,10,06,17.80
2019,07,20,10,07,17.80
2019,07,20,10,08,17.80
2019,07,20,10,09,17.80
2019,07,20,10,10,17.80
2019,07,20,10,11,17.80
2019,07,20,10,12,17.80
2019,07,20,10,13,17.90
2019,07,20,10,14,18.00
2019,07,20,10,15,18.00
2019,07,20,10,16,18.00
2019,07,20,10,17,18.10
2019,07,20,10,18,18.10
2019,07,20,10,19,18.10
2019,07,20,10,20,18.10
2019,07,20,10,21,18.10
2019,07,20,10,22,18.20
2019,07,20,10,23,18.20
2019,07,20,10,24,18.30
2019,07,20,10,25,18.30
2019,07,20,10,26,18.40
2019,07,20,10,27,18.40
2019,07,20,10,28,18.50
2019,07,20,10,29,18.60
2019,07,20,10,30,18.60
2019,07,20,10,31,18.70
2019,07,20,10,32,18.70
2019,07,20,10,33,18.70
2019,07,20,10,34,18.80
2019,07,20,10,35,18.70
2019,07,20,10,36,18.70
2019,07,20,10,37,18.70
2019,07,20,10,38,18.60
2019,07,20,10,39,18.60
2019,07,20,10,40,18.50
2019,07,20,10,41,18.50
2019,07,20,10,42,18.50
2019,07,20,10,43,18.50
2019,07,20,10,44,18.50
2019,07,20,10,45,18.60
2019,07,20,10,46,18.70
2019,07,20,10,47,18.70
2019,07,20,10,48,18.80
2019,07,20,10,49,18.80
2019,07,20,10,50,18.80
2019,07,20,10,51,18.70
2019,07,20,10,52,18.70
2019,07,20,10,53,18.70
2019,07,20,10,54,18.70
2019,07,20,10,55,18.80
2019,07,20,10,56,18.80
2019,07,20,10,57,18.90
2019,07,20,10,58,18.90
2019,07,20,10,59,18.90
2019,07,20,11,00,18.90
2019,07,20,11,01,19.00
2019,07,20,11,02,19.00
2019,07,20,11,03,19.00
2019,07,20,11,04,19.00
2019,07,20,11,05,19.00
2019,07,20,11,06,19.00
2019,07,20,11,07,18.90
2019,07,20,11,08,18.90
2019,07,20,11,09,18.80
2019,07,20,11,10,18.80
2019,07,20,11,11,18.80
2019,07,20,11,12,18.80
2019,07,20,11,13,18.90
2019,07,20,11,14,19.00
2019,07,20,11,15,19.00
2019,07,20,11,16,19.00
2019,07,20,11,17,19.10
2019,07,20,11,18,19.10
2019,07,20,11,19,19.10
2019,07,20,11,20,19.20
2019,07,20,11,21,19.30
2019,07,20,11,22,19.30
2019,07,20,11,23,19.30
2019,07,20,11,24,19.30
2019,07,20,11,25,19.30
2019,07,20,11,26,19.30
2019,07,20,11,27,19.30
2019,07,20,11,28,19.40
2019,07,20,11,29,19.40
2019,07,20,11,30,19.50
2019,07,20,11,31,19.50
2019,07,20,11,32,19.60
2019,07,20,11,33,19.60
2019,07,20,11,34,19.60
2019,07,20,11,35,19.70
2019,07,20,11,36,19.70
2019,07,20,11,37,19.70
2019,07,20,11,38,19.60
2019,07,20,11,39,19.70
2019,07,20,11,40,19.70
2019,07,20,11,41,19.70
2019,07,20,11,42,19.70
2019,07,20,11,43,19.70
2019,07,20,11,44,19.60
2019,07,20,11,45,19.60
2019,07,20,11,46,19.60
2019,07,20,11,47,19.60
2019,07,20,11,48,19.50
2019,07,20,11,49,19.40
2019,07,20,11,50,19.50
2019,07,20,11,51,19.50
2019,07,20,11,52,19.60
2019,07,20,11,53,19.70
2019,07,20,11,54,19.80
2019,07,20,11,55,19.80
2019,07,20,11,56,19.90
2019,07,20,11,57,19.90
2019,07,20,11,58,19.80
2019,07,20,11,59,19.90
2019,07,20,12,00,20.00
2019,07,20,12,01,20.10
2019,07,20,12,02,20.20
2019,07,20,12,03,20.30
2019,07,20,12,04,20.40
2019,07,20,12,05,20.40
2019,07,20,12,06,20.50
2019,07,20,12,07,20.50
2019,07,20,12,08,20.50
2019,07,20,12,09,20.50
2019,07,20,12,10,20.50
2019,07,20,12,11,20.50
2019,07,20,12,12,20.50
2019,07,20,12,13,20.50
2019,07,20,12,14,20.40
2019,07,20,12,15,20.40
2019,07,20,12,16,20.40
2019,07,20,12,17,20.40
2019,07,20,12,18,20.40
2019,07,20,12,19,20.40
2019,07,20,12,20,20.40
2019,07,20,12,21,20.40
2019,07,20,12,22,20.40
2019,07,20,12,23,20.40
2019,07,20,12,24,20.40
2019,07,20,12,25,20.40
2019,07,20,12,26,20.30
2019,07,20,12,27,20.30
2019,07,20,12,28,20.30
2019,07,20,12,29,20.30
2019,07,20,12,30,20.30
2019,07,20,12,31,20.40
2019,07,20,12,32,20.40
2019,07,20,12,33,20.50
2019,07,20,12,34,20.50
2019,07,20,12,35,20.50
2019,07,20,12,36,20.40
2019,07,20,12,37,20.40
2019,07,20,12,38,20.40
2019,07,20,12,39,20.40
2019,07,20,12,40,20.30
2019,07,20,12,41,20.30
2019,07,20,12,42,20.30
2019,07,20,12,43,20.30
2019,07,20,12,44,20.30
2019,07,20,12,45,20.30
2019,07,20,12,46,20.40
2019,07,20,12,47,20.40
2019,07,20,12,48,20.50
2019,07,20,12,49,20.50
2019,07,20,12,50,20.40
2019,07,20,12,51,20.40
2019,07,20,12,52,20.50
2019,07,20,12,53,20.60
2019,07,20,12,54,20.60
2019,07,20,12,55,20.70
2019,07,20,12,56,20.70
2019,07,20,12,57,20.80
2019,07,20,12,58,20.90
2019,07,20,12,59,21.00
2019,07,20,13,00,21.10
2019,07,20,13,01,21.10
2019,07,20,13,02,21.10
2019,07,20,13,03,21.10
2019,07,20,13,04,21.10
2019,07,20,13,05,21.20
2019,07,20,13,06,21.20
2019,07,20,13,07,21.10
2019,07,20,13,08,21.10
2019,07,20,13,09,21.10
2019,07,20,13,10,21.10
2019,07,20,13,11,21.10
2019,07,20,13,12,21.10
2019,07,20,13,13,21.00
2019,07,20,13,14,20.90
2019,07,20,13,15,20.80
2019,07,20,13,16,20.70
2019,07,20,13,17,20.70
2019,07,20,13,18,20.80
2019,07,20,13,19,20.80
2019,07,20,13,20,20.90
2019,07,20,13,21,21.00
2019,07,20,13,22,21.10
2019,07,20,13,23,21.10
2019,07,20,13,24,21.10
2019,07,20,13,25,21.20
2019,07,20,13,26,21.20
2019,07,20,13,27,21.30
2019,07,20,13,28,21.30
2019,07,20,13,29,21.30
2019,07,20,13,30,21.20
2019,07,20,13,31,21.20
2019,07,20,13,32,21.20
2019,07,20,13,33,21.20
2019,07,20,13,34,21.20
2019,07,20,13,35,21.20
2019,07,20,13,36,21.20
2019,07,20,13,37,21.20
2019,07,20,13,38,21.20
2019,07,20,13,39,21.20
2019,07,20,13,40,21.20
2019,07,20,13,41,21.20
2019,07,20,13,42,21.30
2019,07,20,13,43,21.30
2019,07,20,13,44,21.50
2019,07,20,13,45,21.60
2019,07,20,13,46,21.70
2019,07,20,13,47,21.70
2019,07,20,13,48,21.70
2019,07,20,13,49,21.80
2019,07,20,13,50,21.80
2019,07,20,13,51,21.80
2019,07,20,13,52,21.80
2019,07,20,13,53,21.80
2019,07,20,13,54,21.80
2019,07,20,13,55,21.80
2019,07,20,13,56,21.80
2019,07,20,13,57,21.90
2019,07,20,13,58,22.00
2019,07,20,13,59,22.00
2019,07,20,14,00,22.10
2019,07,20,14,01,22.10
2019,07,20,14,02,22.10
2019,07,20,14,03,22.10
2019,07,20,14,04,22.10
2019,07,20,14,05,22.20
2019,07,20,14,06,22.10
2019,07,20,14,07,22.10
2019,07,20,14,08,22.10
2019,07,20,14,09,22.20
2019,07,20,14,10,22.20
2019,07,20,14,11,22.20
2019,07,20,14,12,22.20
2019,07,20,14,13,22.20
2019,07,20,14,14,22.30
2019,07,20,14,15,22.30
2019,07,20,14,16,22.30
2019,07,20,14,17,22.30
2019,07,20,14,18,22.30
2019,07,20,14,19,22.30
2019,07,20,14,20,22.20
2019,07,20,14,21,22.20
2019,07,20,14,22,22.20
2019,07,20,14,23,22.20
2019,07,20,14,24,22.20
2019,07,20,14,25,22.20
2019,07,20,14,26,22.30
2019,07,20,14,27,22.30
2019,07,20,14,28,22.40
2019,07,20,14,29,22.40
2019,07,20,14,30,22.40
2019,07,20,14,31,22.40
2019,07,20,14,32,22.40
2019,07,20,14,33,22.40
2019,07,20,14,34,22.40
2019,07,20,14,35,22.40
2019,07,20,14,36,22.40
2019,07,20,14,37,22.30
2019,07,20,14,38,22.20
2019,07,20,14,39,22.20
2019,07,20,14,40,22.10
2019,07,20,14,41,22.10
2019,07,20,14,42,22.10
2019,07,20,14,43,22.10
2019,07,20,14,44,22.00
2019,07,20,14,45,22.00
2019,07,20,14,46,21.90
2019,07,20,14,47,22.00
2019,07,20,14,48,22.10
2019,07,20,14,49,22.20
2019,07,20,14,50,22.20
2019,07,20,14,51,22.30
2019,07,20,14,52,22.30
2019,07,20,14,53,22.30
2019,07,20,14,54,22.30
2019,07,20,14,55,22.30
2019,07,20,14,56,22.30
2019,07,20,14,57,22.30
2019,07,20,14,58,22.30
2019,07,20,14,59,22.30
2019,07,20,15,00,22.40
2019,07,20,15,01,22.40
2019,07,20,15,02,22.40
2019,07,20,15,03,22.40
2019,07,20,15,04,22.40
2019,07,20,15,05,22.40
2019,07,20,15,06,22.40
2019,07,20,15,07,22.40
2019,07,20,15,08,22.40
2019,07,20,15,09,22.30
2019,07,20,15,10,22.30
2019,07,20,15,11,22.20
2019,07,20,15,12,22.20
2019,07,20,15,13,22.20
2019,07,20,15,14,22.20
2019,07,20,15,15,22.20
2019,07,20,15,16,22.30
2019,07,20,15,17,22.30
2019,07,20,15,18,22.50
2019,07,20,15,19,22.50
2019,07,20,15,20,22.60
2019,07,20,15,21,22.60
2019,07,20,15,22,22.50
2019,07,20,15,23,22.50
2019,07,20,15,24,22.40
2019,07,20,15,25,22.40
2019,07,20,15,26,22.40
2019,07,20,15,27,22.40
2019,07,20,15,28,22.40
2019,07,20,15,29,22.30
2019,07,20,15,30,22.30
2019,07,20,15,31,22.30
2019,07,20,15,32,22.30
2019,07,20,15,33,22.30
2019,07,20,15,34,22.30
2019,07,20,15,35,22.30
2019,07,20,15,36,22.30
2019,07,20,15,37,22.40
2019,07,20,15,38,22.40
2019,07,20,15,39,22.50
2019,07,20,15,40,22.50
2019,07,20,15,41,22.60
2019,07,20,15,42,22.60
2019,07,20,15,43,22.60
2019,07,20,15,44,22.60
2019,07,20,15,45,22.60
2019,07,20,15,46,22.60
2019,07,20,15,47,22.70
2019,07,20,15,48,22.70
2019,07,20,15,49,22.60
2019,07,20,15,50,22.50
2019,07,20,15,51,22.50
2019,07,20,15,52,22.50
2019,07,20,15,53,22.50
2019,07,20,15,54,22.50
2019,07,20,15,55,22.40
2019,07,20,15,56,22.40
2019,07,20,15,57,22.40
2019,07,20,15,58,22.40
2019,07,20,15,59,22.30
2019,07,20,16,00,22.30
2019,07,20,16,01,22.40
2019,07,20,16,02,22.40
2019,07,20,16,03,22.40
2019,07,20,16,04,22.40
2019,07,20,16,05,22.40
2019,07,20,16,06,22.50
2019,07,20,16,07,22.50
2019,07,20,16,08,22.50
2019,07,20,16,09,22.60
2019,07,20,16,10,22.60
2019,07,20,16,11,22.60
2019,07,20,16,12,22.70
2019,07,20,16,13,22.70
2019,07,20,16,14,22.70
2019,07,20,16,15,22.70
2019,07,20,16,16,22.70
2019,07,20,16,17,22.70
2019,07,20,16,18,22.70
2019,07,20,16,19,22.70
2019,07,20,16,20,22.70
2019,07,20,16,21,22.70
2019,07,20,16,22,22.70
2019,07,20,16,23,22.70
2019,07,20,16,24,22.70
2019,07,20,16,25,22.80
2019,07,20,16,26,22.80
2019,07,20,16,27,22.80
2019,07,20,16,28,22.80
2019,07,20,16,29,22.80
2019,07,20,16,30,22.80
2019,07,20,16,31,22.80
2019,07,20,16,32,22.80
2019,07,20,16,33,22.70
2019,07,20,16,34,22.70
2019,07,20,16,35,22.70
2019,07,20,16,36,22.60
2019,07,20,16,37,22.60
2019,07,20,16,38,22.60
2019,07,20,16,39,22.50
2019,07,20,16,40,22.50
2019,07,20,16,41,22.50
2019,07,20,16,42,22.50
2019,07,20,16,43,22.50
2019,07,20,16,44,22.50
2019,07,20,16,45,22.60
2019,07,20,16,46,22.60
2019,07,20,16,47,22.70
2019,07,20,16,48,22.70
2019,07,20,16,49,22.70
2019,07,20,16,50,22.80
2019,07,20,16,51,22.80
2019,07,20,16,52,22.80
2019,07,20,16,53,22.80
2019,07,20,16,54,22.80
2019,07,20,16,55,22.80
2019,07,20,16,56,22.80
2019,07,20,16,57,22.80
2019,07,20,16,58,22.80
2019,07,20,16,59,22.80
2019,07,20,17,00,22.80
2019,07,20,17,01,22.80
2019,07,20,17,02,22.80
2019,07,20,17,03,22.80
2019,07,20,17,04,22.80
2019,07,20,17,05,22.80
2019,07,20,17,06,22.80
2019,07,20,17,07,22.80
2019,07,20,17,08,22.80
2019,07,20,17,09,22.80
2019,07,20,17,10,22.80
2019,07,20,17,11,22.80
2019,07,20,17,12,22.80
2019,07,20,17,13,22.80
2019,07,20,17,14,22.80
2019,07,20,17,15,22.70
2019,07,20,17,16,22.60
2019,07,20,17,17,22.50
2019,07,20,17,18,22.40
2019,07,20,17,19,22.30
2019,07,20,17,20,22.30
2019,07,20,17,21,22.30
2019,07,20,17,22,22.30
2019,07,20,17,23,22.30
2019,07,20,17,24,22.30
2019,07,20,17,25,22.30
2019,07,20,17,26,22.30
2019,07,20,17,27,22.30
2019,07,20,17,28,22.30
2019,07,20,17,29,22.30
2019,07,20,17,30,22.30
2019,07,20,17,31,22.30
2019,07,20,17,32,22.30
2019,07,20,17,33,22.30
2019,07,20,17,34,22.30
2019,07,20,17,35,22.40
2019,07,20,17,36,22.40
2019,07,20,17,37,22.40
2019,07,20,17,38,22.40